[Iaude] MPEC E81: 2024 BS19 [a=2.17,e=0.55,i=8.5,H=21.0,PHA]

mpec at cfa.harvard.edu mpec at cfa.harvard.edu
Wed Mar 6 08:40:13 EST 2024


M.P.E.C. 2024-E81                                 Issued 2024 March 6, 13:38 UT

     The Minor Planet Electronic Circulars contain information on unusual
         minor planets, routine data on comets and natural satellites,
         and occasional editorial announcements.  They are published
    on behalf of Division F of the International Astronomical Union by the
          Minor Planet Center, Smithsonian Astrophysical Observatory,
                          Cambridge, MA 02138, U.S.A.
			  
             Prepared using the Tamkin Foundation Computer Network

                              MPC at CFA.HARVARD.EDU
            URL https://www.minorplanetcenter.net/    ISSN 1523-6714

                                   2024 BS19                                    


Observations:
     K24B19S  C2024 01 05.52777509 14 50.007-00 44 47.46         23.09GVEE081F52
     K24B19S  C2024 01 05.53980409 14 49.689-00 44 55.62         22.97GVEE081F52
     K24B19S  C2024 01 05.55155909 14 49.390-00 45 02.57         23.51GVEE081F52
     K24B19S* C2024 01 19.50651409 05 35.711-03 05 28.31         21.88wXEE081F52
     K24B19S  C2024 01 19.51893409 05 34.922-03 05 34.79         21.92wXEE081F52
     K24B19S  C2024 01 19.53135209 05 34.146-03 05 41.74         21.93wXEE081F52
     K24B19S !C2024 03 05.00639 07 52 14.15 -04 16 34.4          21.3 rXEE081W84
     K24B19S !C2024 03 05.03244 07 52 11.69 -04 16 23.2          21.2 rXEE081W84
     K24B19S !C2024 03 05.05848 07 52 09.23 -04 16 12.0          21.2 rXEE081W84
     K24B19S  C2024 03 06.22733207 50 28.360-04 07 51.85         21.2 GVEE081H01
     K24B19S  C2024 03 06.23170307 50 27.952-04 07 49.86         21.1 GVEE081H01
     K24B19S  C2024 03 06.24376407 50 26.883-04 07 44.50         21.7 GVEE081H01
     K24B19S  C2024 03 06.25459207 50 25.890-04 07 39.42         21.2 GVEE081H01

Observer details:
F52 Pan-STARRS 2, Haleakala.  Observers J. Herman, T. Lowe, P. Minguez, A.
    Schultz, I. Smith.  Measurers K. Chambers, T. de Boer, J. Fairlamb, H.
    Gao, M. Huber, C.-C. Lin, E. Magnier, Y. Ramanjooloo, R. Wainscoat, R.
    Weryk.  1.8-m Ritchey-Chretien + CCD.
H01 Magdalena Ridge Observatory, Socorro.  Observers W. H. Ryan, E. V. Ryan.
    Measurer W. H. Ryan.  2.4-m f/8.9 Ritchey-Chretien + CCD.
W84 Cerro Tololo-DECam.  Observer B. Cassese.  Measurer F. Valdes.  4.0-m CTIO
    reflector + DECam.

Orbital elements:
2024 BS19                                           PHA, Earth MOID = 0.0396 AU
Epoch 2024 Mar. 31.0 TT = JDT 2460400.5                 Veres                   
M 344.42047              (2000.0)            P               Q                  
n   0.30866972     Peri.    0.20342     -0.65150835     +0.75027959             
a   2.1684032      Node   229.14340     -0.69624951     -0.65013866             
e   0.5528567      Incl.    8.54073     -0.30128640     -0.12000108             
P   3.19           H   21.02          G   0.15           U   6                  
Residuals in seconds of arc
240105 F52  0.2+  0.1-    240119 F52  0.1+  0.0     240306 H01  0.1-  0.1+
240105 F52  0.1-  0.4-    240305 W84  0.1+  0.0     240306 H01  0.2+  0.1-
240105 F52  0.2-  0.2+    240305 W84  0.0   0.0     240306 H01  0.1-  0.0
240119 F52  0.0   0.1-    240305 W84  0.1-  0.1-
240119 F52  0.1-  0.2+    240306 H01  0.1+  0.1+

Ephemeris:
2024 BS19                a,e,i = 2.17, 0.55, 9                   q = 0.9696
Date    TT    R. A. (2000) Decl.     Delta      r    Elong.  Phase     V
2024 02 05    08 43 24.5 -05 01 18   0.6115  1.5687   157.7    13.8    21.7
...
2024 02 20    08 16 06.8 -05 21 52   0.5198  1.4526   147.1    21.7    21.5
...
2024 02 28    08 01 45.6 -04 53 52   0.4860  1.3909   138.2    28.3    21.4
...
2024 03 05    07 52 14.3 -04 16 46   0.4658  1.3452   131.2    33.7    21.4
2024 03 06    07 50 48.0 -04 09 24   0.4627  1.3377   130.1    34.6    21.4
2024 03 07    07 49 24.6 -04 01 43   0.4597  1.3301   128.9    35.5    21.4
...
2024 03 13    07 42 11.3 -03 09 58   0.4432  1.2854   122.1    40.9    21.4
...
2024 03 21    07 35 52.9 -01 49 25   0.4231  1.2276   113.5    48.1    21.4
...
2024 04 05    07 34 42.4 +01 03 36   0.3826  1.1277    99.4    61.1    21.4

M. P. C. Staff               (C) Copyright 2024 MPC           M.P.E.C. 2024-E81





More information about the Iaude mailing list